Theta_e
293 293 294 295 296 297 299 300 303 304 307 309 309 311 312 318 321 320 318 316 316 317
293 293 293 294 296 297 300 302 302 304 306 308 310 310 312 311 320 320 319 317 317 317
293 293 293 294 296 297 299 300 301 303 304 306 309 310 312 311 312 320 319 318 318 317
293 293 294 294 296 297 299 299 300 301 302 304 308 310 310 310 310 318 318 319 318 318
292 292 293 294 294 295 294 296 297 299 301 304 307 309 309 308 309 316 317 317 317 317
290 291 292 291 292 293 294 294 296 296 298 299 302 307 303 300 306 316 318 318 317 316
288 289 290 291 291 291 292 292 293 294 295 297 301 297 294 294 294 292 293 293 295 298
288 289 289 289 289 289 289 290 291 290 291 293 294 293 290 290 289 289 287 288 289 289
287 287 287 287 287 287 287 288 289 288 288 289 290 292 291 290 288 288 287 285 286 287
285 284 285 286 286 285 285 286 285 285 285 285 288 291 290 288 287 286 286 286 286 285
283 283 284 284 284 284 285 284 284 284 284 284 286 288 288 286 285 284 284 284 284 284
282 282 283 283 283 283 283 284 284 284 284 284 284 287 287 285 283 281 281 282 283 282
282 282 282 282 282 283 283 282 283 282 283 284 284 286 286 284 283 280 280 281 281 282
282 283 283 282 282 283 282 282 282 281 282 283 283 285 285 285 282 281 280 280 281 282
Wind_Speed
11 9 10 10 11 11 12 12 15 14 14 13 18 13 19 17 17 20 18 21 16 12
14 14 12 13 13 11 13 11 15 15 15 15 15 16 17 11 16 19 19 18 19 13
15 14 14 13 15 14 15 15 16 15 17 16 16 20 16 10 10 19 17 16 19 17
15 16 15 13 14 16 14 14 16 16 16 17 17 17 15 13 13 19 19 19 19 20
15 16 16 15 15 16 18 17 16 18 16 16 16 18 12 14 12 18 24 21 20 19
15 15 14 15 16 17 15 15 16 17 15 14 17 17 8 9 15 15 19 20 21 20
14 14 15 15 16 16 15 16 15 15 14 15 13 4 4 3 6 12 11 13 13 9
15 14 15 15 15 15 15 14 13 12 12 9 6 4 5 8 9 10 17 19 17 17
14 14 13 13 14 14 13 12 11 8 9 8 4 12 15 12 10 12 20 22 21 20
13 14 13 12 13 12 11 10 8 5 5 4 4 20 21 19 10 14 16 18 19 17
13 13 12 11 11 10 8 7 8 9 9 8 9 24 24 23 17 17 17 18 17 18
14 14 11 10 9 8 8 10 10 10 10 8 11 26 21 20 20 21 20 18 17 17
12 11 11 10 9 8 7 10 9 14 14 13 16 29 22 18 15 22 16 17 19 25
11 11 10 8 8 7 9 11 12 15 16 18 14 21 29 28 17 15 14 13 14 12
Wind_Direction
288 286 284 275 277 273 272 267 264 279 286 283 285 286 277 271 196 193 193 195 193 190
303 292 286 288 282 276 274 276 270 265 273 274 260 280 272 293 221 193 189 196 193 191
303 297 292 289 286 282 277 275 277 276 268 272 262 256 259 258 299 209 185 192 193 195
305 301 290 286 285 288 290 292 287 282 277 281 260 262 262 267 306 207 186 191 193 196
306 304 296 296 302 301 294 293 288 280 278 279 269 274 270 281 280 244 193 189 191 196
311 305 317 310 300 298 293 291 287 287 281 281 274 260 262 268 269 226 192 188 191 189
316 310 304 303 304 304 300 294 292 287 285 283 252 224 255 34 33 88 80 85 91 112
308 307 311 309 305 306 301 296 291 292 283 281 267 166 105 83 93 113 103 86 81 92
314 314 313 311 310 309 309 306 301 290 311 310 309 112 105 99 105 98 107 106 99 96
317 314 317 320 319 320 318 313 286 353 316 353 65 98 101 98 101 97 96 102 106 104
321 320 326 330 329 329 330 338 6 3 18 46 75 96 101 99 89 80 76 81 87 90
327 330 333 335 336 350 0 21 27 28 34 51 78 86 91 100 88 80 69 72 76 84
331 339 343 342 352 2 24 43 44 47 39 45 66 79 74 77 88 85 81 75 74 79
346 343 347 353 5 18 46 50 48 55 51 52 58 74 76 71 74 78 87 79 80 82